Weather History for Harrisburg, PA

Change the Weather History Date:

Saturday, February 16, 2013

  Actual Average Record
Temperature  
Mean Temperature 33 °F -  
Max Temperature 36 °F 41 °F 75 °F (1954)
Min Temperature 30 °F 25 °F 0 °F (1905)
Degree Days  
Heating Degree Days 32    
Moisture  
Dew Point 26 °F    
Average Humidity 79    
Maximum Humidity 100    
Minimum Humidity 42    
Precipitation  
Precipitation 0.00 in - - ()
Sea Level Pressure  
Sea Level Pressure 29.96 in    
Wind  
Wind Speed 3 mph (NW)    
Max Wind Speed 10 mph    
Max Gust Speed -    
Visibility 6 miles    
Events Fog    
Averages and records for this station are not official NWS values.
T = Trace of Precipitation, MM = Missing Value Source: NWS Daily Summary

Daily Weather History Graph

Daily Weather History Graph

Search for Another Location

Airport:

Trip Planner

Search our weather history database for the weather conditions in past years. The results will help you decide how hot, cold, wet, or windy it might be!

Date:

Astronomy

Feb. 16, 2013 Rise Set
Actual Time 6:59 AM EST 5:44 PM EST
Civil Twilight 6:31 AM EST 6:12 PM EST
Nautical Twilight 5:59 AM EST 6:44 PM EST
Astronomical Twilight 5:28 AM EST 7:15 PM EST
Moon 10:09 AM EST (2/16) No Moon Set
Length of Visible Light 11h 41m
Length of Day
10h 45m
Waxing Crescent, 39% of the Moon is Illuminated
Feb 16
Waxing Crescent
Feb 17
First Quarter
Feb 25
Full
Mar 4
Last Quarter
Mar 11
New

Hourly Weather History & Observations

Time (EST) Temp. Windchill Dew Point Humidity Pressure Visibility Wind Dir Wind Speed Gust Speed Precip Events Conditions
12:41 AM 33.8 °F - 32.0 °F 93% 29.99 in 1.5 mi Calm Calm - N/A   Scattered Clouds
12:49 AM 33.8 °F - 32.0 °F 93% 29.99 in 1.0 mi Calm Calm - N/A   Mostly Cloudy
12:56 AM 33.1 °F - 32.0 °F 96% 30.01 in 1.0 mi Calm Calm - N/A   Scattered Clouds
1:09 AM 32.0 °F 28.7 °F 32.0 °F 100% 29.99 in 2.0 mi WSW 3.5 mph - N/A   Partly Cloudy
1:17 AM 30.2 °F 25.4 °F 30.2 °F 100% 29.99 in 3.0 mi WSW 4.6 mph - N/A   Scattered Clouds
1:27 AM 32.0 °F 27.5 °F 30.2 °F 93% 29.98 in 2.5 mi East 4.6 mph - N/A   Mostly Cloudy
1:36 AM 33.8 °F - 32.0 °F 93% 29.99 in 4.0 mi Calm Calm - N/A   Scattered Clouds
1:56 AM 32.0 °F - 30.9 °F 96% 30.00 in 1.8 mi Calm Calm - N/A   Mostly Cloudy
2:06 AM 32.0 °F - 30.2 °F 93% 29.98 in 2.0 mi Calm Calm - N/A   Mostly Cloudy
2:29 AM 30.2 °F - 30.2 °F 100% 29.98 in 1.2 mi Calm Calm - N/A   Overcast
2:38 AM 30.2 °F - 30.2 °F 100% 29.98 in 0.2 mi Calm Calm - N/A Fog Light Freezing Fog
2:46 AM 30.2 °F 26.7 °F 30.2 °F 100% 29.97 in 0.2 mi NW 3.5 mph - N/A Fog Light Freezing Fog
2:54 AM 32.0 °F 28.7 °F 30.2 °F 93% 29.97 in 0.8 mi WNW 3.5 mph - N/A   Mist
2:56 AM 32.0 °F 28.7 °F 30.9 °F 96% 29.98 in 1.0 mi WNW 3.5 mph - N/A   Mist
3:04 AM 30.2 °F 25.4 °F 30.2 °F 100% 29.97 in 0.2 mi SW 4.6 mph - N/A Fog Light Freezing Fog
3:13 AM 30.2 °F 25.4 °F 30.2 °F 100% 29.98 in 0.2 mi WSW 4.6 mph - N/A Fog Light Freezing Fog
3:56 AM 32.0 °F 27.5 °F 32.0 °F 100% 29.98 in 0.2 mi West 4.6 mph - N/A Fog Fog
4:09 AM 32.0 °F 27.5 °F 30.2 °F 93% 29.97 in 0.2 mi West 4.6 mph - N/A Fog Fog
4:25 AM 32.0 °F 28.7 °F 32.0 °F 100% 29.96 in 0.8 mi NW 3.5 mph - N/A   Overcast
4:30 AM 32.0 °F 28.7 °F 32.0 °F 100% 29.96 in 1.8 mi WNW 3.5 mph - N/A   Mostly Cloudy
4:32 AM 32.0 °F 28.7 °F 32.0 °F 100% 29.96 in 3.0 mi WNW 3.5 mph - N/A   Mostly Cloudy
4:56 AM 30.9 °F 27.5 °F 30.9 °F 100% 29.98 in 5.0 mi WSW 3.5 mph - N/A   Clear
6:16 AM 30.2 °F - 30.2 °F 100% 29.98 in 10.0 mi Calm Calm - N/A   Mostly Cloudy
6:56 AM 32.0 °F 25.6 °F 25.0 °F 75% 30.00 in 10.0 mi North 6.9 mph - N/A   Overcast
7:56 AM 33.1 °F 27.7 °F 24.1 °F 70% 30.00 in 10.0 mi NNW 5.8 mph - N/A   Overcast
8:56 AM 33.1 °F 27.7 °F 25.0 °F 72% 30.00 in 10.0 mi NNW 5.8 mph - N/A   Overcast
9:56 AM 34.0 °F 29.8 °F 25.0 °F 70% 29.99 in 10.0 mi North 4.6 mph - N/A   Overcast
10:56 AM 35.1 °F 31.0 °F 23.0 °F 61% 29.98 in 10.0 mi North 4.6 mph - N/A   Clear
11:56 AM 36.0 °F 29.0 °F 21.9 °F 57% 29.97 in 10.0 mi NNW 9.2 mph - N/A   Partly Cloudy
12:56 PM 35.1 °F 30.1 °F 19.9 °F 54% 29.93 in 10.0 mi NNW 5.8 mph - N/A   Partly Cloudy
1:56 PM 36.0 °F 28.5 °F 19.9 °F 52% 29.91 in 10.0 mi NNW 10.4 mph - N/A   Mostly Cloudy
2:56 PM 35.1 °F 30.1 °F 19.9 °F 54% 29.90 in 10.0 mi NW 5.8 mph - N/A   Mostly Cloudy
3:56 PM 35.1 °F 30.1 °F 19.0 °F 52% 29.90 in 10.0 mi North 5.8 mph - N/A   Partly Cloudy
4:56 PM 35.1 °F 30.1 °F 18.0 °F 50% 29.91 in 10.0 mi North 5.8 mph - N/A   Mostly Cloudy
5:56 PM 34.0 °F 28.8 °F 17.1 °F 50% 29.91 in 10.0 mi North 5.8 mph - N/A   Partly Cloudy
6:56 PM 34.0 °F - 18.0 °F 52% 29.90 in 10.0 mi Calm Calm - N/A   Clear
7:56 PM 32.0 °F 28.7 °F 18.0 °F 56% 29.89 in 10.0 mi WNW 3.5 mph - N/A   Clear
8:56 PM 33.1 °F 26.9 °F 14.0 °F 46% 29.88 in 10.0 mi NNW 6.9 mph - N/A   Clear
9:56 PM 32.0 °F 24.2 °F 12.9 °F 45% 29.88 in 10.0 mi North 9.2 mph - N/A   Clear
10:56 PM 30.9 °F 26.2 °F 10.9 °F 43% 29.86 in 10.0 mi NNW 4.6 mph - N/A   Clear
11:56 PM 30.9 °F 22.8 °F 10.0 °F 42% 29.86 in 10.0 mi North 9.2 mph - N/A   Scattered Clouds